GFSSE_con_3kmhel_153.txt.gz
Helicity
88 43 100 77 56 35 25 24 28 32 32 30 24 22 43 59 68 71 67 65 64 65 64 57 45 42 36 37 43 41 41 41 40 45 58 64 64 51 35 28 9 42 61
205 134 176 106 74 66 55 49 52 51 46 36 32 29 26 42 59 59 62 59 58 57 56 56 45 37 39 38 37 43 46 45 42 45 54 60 58 38 30 12 -6 34 74
105 110 163 193 122 90 84 82 83 83 83 58 40 36 30 29 34 45 53 55 53 49 42 47 44 40 41 37 39 43 46 46 39 31 20 15 46 38 29 26 26 63 57
58 100 144 163 144 157 157 130 111 109 107 103 65 44 36 36 34 38 47 41 41 37 29 29 37 41 43 43 47 47 46 45 34 6 2 16 65 58 41 22 34 43 35
46 77 124 150 155 144 145 151 158 152 124 124 125 77 38 42 39 32 37 38 35 30 24 19 19 30 40 45 51 52 49 43 27 -4 -18 18 56 78 58 28 29 32 28
90 81 111 144 147 147 157 161 159 149 153 135 130 116 71 34 29 31 35 28 25 23 22 27 31 41 38 29 37 47 51 42 20 -2 5 74 45 92 57 40 4 29 39
108 97 94 132 146 139 136 139 147 150 150 160 146 118 102 87 60 40 28 26 20 18 17 30 36 41 48 47 47 42 44 39 17 -10 17 60 48 70 66 51 23 38 42
119 110 116 107 142 142 143 158 146 140 134 138 144 150 129 96 96 75 46 24 19 16 20 18 33 34 44 47 43 45 41 27 23 5 25 10 168 97 66 55 35 42 42
116 110 105 111 117 117 109 160 167 166 154 133 125 116 98 76 65 61 56 43 42 24 23 26 33 38 37 45 49 44 41 26 -5 1 17 36 131 99 69 59 55 63 65
101 108 121 110 113 121 125 153 167 156 135 127 109 83 115 63 45 55 62 61 46 45 32 36 44 52 49 41 45 52 47 27 12 -3 12 62 124 88 77 61 62 66 71
132 146 136 142 138 136 116 136 132 134 116 122 118 98 110 98 90 60 62 70 81 76 60 61 50 66 63 52 47 48 53 44 30 23 -15 207 166 95 76 66 71 69 77
147 145 146 140 132 132 115 110 103 97 90 82 79 90 84 83 80 83 59 56 87 89 82 83 87 98 87 65 72 97 77 30 21 14 22 144 150 111 90 79 82 78 82
146 152 169 154 116 106 94 85 79 77 75 72 71 54 41 59 58 73 91 86 83 91 101 111 116 124 108 94 67 94 58 27 30 24 29 172 153 125 93 91 85 81 80
150 165 160 128 102 84 79 83 66 61 49 61 66 64 66 64 66 59 64 81 89 113 88 96 136 140 136 99 79 56 61 64 56 39 66 201 146 127 102 85 87 82 81
187 157 137 106 88 73 63 64 62 60 67 66 59 66 87 93 102 98 102 97 84 92 104 122 96 104 129 136 104 69 80 85 47 39 40 175 160 132 99 93 80 68 82
158 128 97 89 78 71 67 65 60 59 62 55 55 74 67 86 101 120 133 131 121 112 112 120 129 147 93 127 144 129 140 96 82 82 42 129 149 135 106 90 93 73 69
128 96 85 80 80 76 67 64 56 69 63 66 64 78 85 83 92 99 116 138 146 152 125 112 116 119 135 112 133 148 181 150 98 99 106 62 137 126 141 99 97 91 95
99 98 106 114 110 103 81 58 65 62 60 53 63 60 74 92 121 116 136 139 153 200 212 205 173 151 143 148 120 121 154 195 146 102 114 120 80 128 119 132 99 100 106
121 127 129 118 117 104 73 65 57 58 51 60 59 66 89 94 86 99 120 157 199 193 217 208 214 236 155 149 151 135 119 150 181 178 122 136 136 77 151 123 137 90 112
132 129 130 117 110 103 91 79 63 54 54 65 76 83 96 78 109 151 106 120 147 165 199 218 208 218 215 162 147 151 131 129 142 200 209 142 170 109 114 148 131 140 117
146 139 121 110 103 93 85 66 64 58 62 60 66 77 109 121 111 103 119 135 133 163 194 258 322 335 208 159 133 139 146 107 149 141 241 222 171 140 153 104 181 171 160
135 116 99 104 101 77 52 32 29 36 29 33 56 73 81 110 97 114 137 124 157 146 178 190 220 249 293 221 217 179 210 154 140 140 139 214 176 154 182 146 118 143 147
116 108 111 110 88 61 50 26 33 17 37 56 72 85 109 128 132 126 130 116 114 143 158 171 160 177 191 266 261 192 232 253 220 141 127 199 320 270 250 155 164 132 159
123 122 115 78 62 44 28 11 15 2 16 26 39 57 91 145 147 161 146 145 116 104 109 116 128 159 180 175 208 243 206 244 256 188 169 157 222 288 300 184 167 162 163
129 113 90 63 57 50 22 16 2 15 -9 -9 17 63 106 140 170 160 149 162 134 132 115 114 112 100 133 167 182 206 217 244 171 250 212 211 278 251 277 286 113 139 134
112 99 80 72 64 64 48 29 3 6 4 16 42 50 71 97 131 148 156 141 131 107 90 79 93 100 77 94 123 140 189 245 270 197 211 180 203 198 224 249 196 127 161

GFSSE_con_3kmhel_156.txt.gz
Helicity
105 100 164 106 82 63 48 39 42 41 34 19 8 4 -7 -8 -10 -1 10 12 21 26 35 33 39 38 30 36 40 36 30 27 25 31 39 50 57 55 47 49 40 48 42
150 122 193 158 97 70 60 54 55 57 56 52 41 28 11 -3 2 5 7 7 10 15 23 21 26 29 26 32 36 32 29 22 20 24 33 42 43 38 40 66 51 45 60
103 91 120 142 108 105 98 87 74 72 74 75 65 49 35 19 2 11 14 11 11 9 11 12 13 10 17 26 29 27 29 20 13 12 13 12 45 26 40 65 33 40 60
64 75 103 110 101 105 99 102 108 100 90 93 92 76 52 44 28 9 9 12 6 10 7 9 10 10 17 24 29 21 19 20 12 5 -7 8 43 33 45 63 56 48 48
64 74 82 100 101 87 86 95 104 113 120 108 97 93 97 72 61 35 16 8 2 -2 3 6 5 17 23 25 35 32 20 13 5 -4 -9 29 -11 52 53 63 55 45 46
91 74 78 98 96 91 97 105 102 98 105 108 117 109 107 107 92 65 31 13 10 2 -1 3 6 14 26 20 23 28 24 17 1 -6 -7 95 -11 93 62 52 38 53 44
123 109 75 88 114 103 104 104 105 108 109 117 112 112 113 95 84 70 56 37 26 18 13 12 13 12 22 20 19 17 20 21 7 -11 14 63 138 103 86 59 47 68 75
130 122 121 101 104 83 94 106 115 120 121 114 105 106 94 73 64 58 51 44 37 39 30 28 18 13 23 28 31 20 13 16 6 9 25 41 133 97 80 76 76 64 84
124 125 103 96 102 101 89 103 102 124 140 142 119 95 115 86 50 43 41 46 49 43 43 47 40 23 29 31 36 35 23 9 4 -21 -17 32 176 142 101 98 85 68 83
126 113 116 88 95 104 73 105 96 112 103 115 122 105 139 155 122 69 48 31 45 50 59 60 66 64 51 46 44 44 47 37 19 -7 -45 -1 160 168 122 106 109 89 86
111 98 82 106 113 129 83 99 95 109 106 112 89 88 91 87 98 91 80 68 52 36 42 41 55 79 88 76 69 64 71 79 54 46 25 89 132 149 151 115 125 103 103
125 111 105 117 126 132 111 99 85 101 84 85 57 57 56 54 76 95 83 96 75 57 52 51 65 77 115 130 109 104 138 119 90 46 21 160 163 142 130 120 127 115 117
149 157 156 131 130 122 108 69 73 70 53 67 50 48 24 28 39 49 60 88 103 72 76 70 64 90 114 158 141 135 160 150 127 83 15 183 183 151 129 114 131 127 121
151 157 173 162 150 127 93 60 63 66 50 42 50 46 22 20 38 42 47 62 75 87 88 98 80 73 68 96 124 132 147 176 142 67 52 197 190 163 128 112 132 120 120
173 145 165 166 134 96 76 49 39 35 54 46 61 67 36 30 41 44 62 83 103 109 100 97 96 79 99 88 67 56 79 93 136 109 139 225 206 185 159 117 130 110 117
180 158 136 141 97 80 74 67 57 61 65 61 61 70 59 52 54 56 65 89 109 148 160 138 97 107 71 79 97 80 57 34 86 158 185 194 166 173 160 125 131 108 109
208 165 131 108 75 63 49 38 30 58 64 73 85 89 80 67 82 81 54 72 137 176 162 126 157 180 115 83 59 89 94 88 41 110 183 233 215 178 168 129 142 124 111
196 145 110 83 70 59 49 41 55 66 62 72 80 74 95 115 100 98 111 106 105 99 100 133 181 173 168 165 97 56 99 103 94 101 117 199 273 254 208 161 152 155 129
147 112 94 81 90 90 77 77 70 79 61 63 52 61 90 77 97 76 65 65 82 109 129 147 179 224 202 180 190 115 71 104 92 101 119 146 208 288 290 192 175 163 167
149 122 124 109 110 114 100 98 95 85 70 53 49 56 105 77 118 77 52 76 89 100 117 151 187 218 225 243 237 184 141 97 99 115 96 128 133 242 297 280 212 164 181
130 132 125 117 123 114 104 97 86 74 56 58 82 136 114 132 119 91 85 93 102 112 119 127 150 167 139 221 196 179 101 108 63 74 114 98 114 162 309 322 291 225 145
165 150 145 139 119 107 82 70 57 42 46 65 72 91 123 107 124 93 68 72 94 92 98 103 125 139 141 156 219 194 113 111 122 118 72 107 84 124 209 324 343 232 213
140 132 129 116 107 94 80 39 36 31 37 42 43 44 59 80 91 88 80 96 88 81 65 68 93 101 121 153 169 226 210 108 44 130 126 87 110 153 209 167 378 318 234
129 123 126 112 102 80 61 44 33 -1 -7 0 11 12 20 47 68 96 86 90 84 79 85 83 89 91 111 115 147 208 144 137 118 111 143 134 129 140 160 146 201 233 222
133 104 104 81 76 69 59 45 7 2 -8 -3 9 11 11 11 35 61 70 84 107 106 103 104 95 83 86 109 119 118 141 123 137 115 69 125 122 57 142 288 332 110 130
110 114 95 98 84 80 78 60 45 34 17 13 24 21 19 16 17 36 65 87 105 110 122 122 93 83 78 67 72 104 103 129 157 165 131 74 89 72 144 140 181 214 184

GFSSE_con_3kmhel_159.txt.gz
Helicity
93 109 162 130 106 79 69 59 50 45 37 28 22 17 9 4 -3 -7 -2 6 8 16 26 35 36 33 32 33 36 32 27 28 30 32 33 44 52 67 61 56 53 65 39
47 84 146 155 123 99 89 84 65 59 57 44 36 28 26 17 8 7 4 4 5 7 13 20 21 19 25 23 22 18 20 21 16 13 19 34 41 57 59 63 66 61 49
69 44 98 123 113 99 95 87 75 62 67 62 52 42 37 37 31 10 13 8 -2 3 -3 6 8 9 17 20 15 7 13 14 7 -2 0 19 45 54 52 49 43 53 51
19 29 74 98 98 99 90 79 77 75 69 77 77 78 60 50 51 50 18 13 7 1 -5 -5 -2 5 14 15 12 2 4 7 3 -6 -4 -5 12 31 45 52 56 47 49
48 65 97 117 112 97 90 83 81 77 74 79 80 92 92 81 61 46 45 25 11 9 2 -2 2 7 16 14 7 1 -5 -2 0 -5 12 -3 18 27 76 61 63 51 56
86 67 93 119 121 107 93 85 86 88 81 76 77 85 89 93 75 61 43 37 27 22 17 15 16 9 18 17 13 2 1 -5 -11 -5 23 4 31 -7 68 82 77 66 58
117 83 98 131 116 120 109 101 95 94 91 99 94 104 93 83 66 57 57 43 27 23 29 35 31 24 22 30 21 13 7 2 10 -11 20 14 60 -6 60 81 91 85 75
115 141 149 145 119 102 100 94 101 108 117 122 134 150 140 136 87 57 53 51 39 24 18 22 30 40 35 32 31 26 20 11 13 15 19 13 67 45 101 85 92 108 98
123 156 148 135 141 112 98 97 102 113 126 131 139 169 167 154 152 142 107 69 63 42 29 20 21 23 35 45 47 42 46 38 34 25 -6 44 40 75 116 112 103 124 107
107 142 145 136 150 149 83 133 132 129 141 143 134 143 151 145 153 139 124 99 88 67 40 34 34 27 26 33 44 51 52 48 47 42 19 45 42 89 108 126 125 129 127
124 144 146 157 174 175 147 144 142 137 141 119 105 119 96 90 99 104 114 145 152 182 70 43 43 43 37 31 39 44 56 91 83 63 60 31 55 79 95 129 122 131 149
146 154 115 138 171 184 173 129 131 117 96 56 70 58 26 43 53 67 86 107 123 154 160 109 71 50 46 63 78 71 93 89 101 90 90 48 81 104 129 140 142 131 156
124 139 127 150 167 199 161 127 110 100 53 45 65 37 -1 -10 -4 1 8 25 46 80 48 69 90 102 94 63 49 67 99 98 116 113 85 64 95 148 154 168 150 127 152
127 134 149 166 189 204 144 140 114 98 42 48 44 48 -4 -15 -1 -3 -2 9 25 43 58 61 50 94 133 111 84 55 61 106 99 100 96 75 108 158 198 193 181 152 152
138 139 164 163 174 179 150 130 123 74 50 51 69 75 41 24 30 12 10 16 33 59 73 60 62 64 86 116 105 114 69 53 76 112 82 63 106 180 191 206 183 148 161
149 119 128 139 131 138 116 110 78 55 45 74 89 89 103 69 49 28 16 30 41 48 48 41 51 64 70 80 83 102 68 61 45 69 104 51 110 196 214 206 181 157 159
183 142 150 129 118 130 119 85 68 54 60 68 74 113 83 62 45 22 4 1 0 -6 31 40 50 72 87 106 108 83 106 67 46 50 52 92 129 163 186 197 215 197 181
210 167 145 125 113 116 84 69 67 76 72 73 98 113 134 113 85 32 15 9 19 32 57 59 65 94 112 115 95 127 118 110 62 60 66 75 143 161 142 188 227 235 215
188 164 135 106 110 91 74 79 95 117 122 125 140 145 160 132 110 64 28 32 68 70 82 108 115 120 100 94 77 78 109 136 99 57 95 93 94 154 204 139 214 249 235
164 146 115 86 90 86 98 85 107 133 131 124 97 78 77 44 69 42 31 45 28 42 65 85 109 122 137 126 89 77 70 87 91 83 74 108 108 113 173 195 198 255 275
129 138 132 116 120 121 117 118 126 114 81 63 69 77 73 58 46 54 24 10 44 63 76 92 105 122 148 168 147 96 78 72 78 66 54 63 87 126 137 188 232 270 266
164 165 130 86 107 125 104 103 75 67 42 35 44 54 57 63 59 62 51 43 54 67 88 101 123 131 129 143 169 166 85 94 91 75 101 72 58 85 136 126 202 226 245
178 169 146 121 127 115 103 66 40 22 34 59 65 29 14 16 18 23 39 32 57 70 70 85 99 123 135 145 156 186 181 175 146 144 223 156 111 102 83 120 150 198 254
159 167 164 123 109 67 52 52 52 24 18 17 -2 -25 -40 -33 -23 -6 -9 12 35 49 67 73 85 88 93 113 133 148 130 141 122 28 116 199 242 199 145 101 63 196 169
147 140 153 83 91 69 62 68 56 44 14 -3 -10 -14 -34 -52 -44 -14 -11 5 24 35 58 82 113 107 91 89 93 109 159 134 94 79 21 43 99 136 226 123 143 146 134
176 165 203 108 83 75 69 73 72 53 24 7 4 -2 -20 -52 -61 -29 -14 4 29 53 63 79 101 113 97 83 82 102 99 125 134 101 86 52 63 -1 54 165 207 180 188

GFSSE_con_3kmhel_162.txt.gz
Helicity
122 143 146 88 75 97 90 74 64 56 43 38 40 44 47 47 53 49 40 37 34 39 43 48 48 49 42 40 36 35 32 30 30 27 24 26 42 60 58 50 52 60 45
107 112 127 97 56 91 105 100 95 90 72 48 45 44 43 47 55 51 48 43 30 33 33 34 33 33 29 30 28 29 33 32 30 31 29 28 38 51 60 34 56 50 44
92 84 94 82 52 95 114 109 103 91 88 84 56 44 41 41 44 51 49 45 41 26 23 26 23 19 21 28 26 23 25 31 25 28 27 26 19 33 60 60 46 64 47
77 96 147 80 57 94 117 104 86 74 63 67 64 70 68 54 44 36 32 33 33 40 23 12 12 13 17 22 22 18 20 22 22 22 24 23 -1 9 34 38 55 58 59
110 100 134 91 72 107 113 96 85 70 77 76 80 77 81 81 81 57 36 22 20 19 31 21 6 15 12 19 16 15 19 18 20 19 16 22 4 17 6 36 63 77 73
130 100 99 94 114 121 123 114 106 93 88 85 107 106 104 96 88 80 70 40 32 23 20 22 23 13 9 13 15 16 16 19 30 22 27 11 -10 13 37 49 45 78 83
100 92 103 123 143 135 144 138 126 116 113 123 151 157 173 172 141 104 95 78 67 37 28 29 27 18 9 13 18 14 11 16 32 27 31 32 19 16 3 45 55 76 94
85 105 134 149 131 151 141 141 136 144 137 166 186 190 198 199 184 187 168 146 119 88 56 36 29 22 16 15 13 16 10 14 24 31 46 46 8 22 20 49 73 82 109
121 143 169 165 170 172 178 157 145 158 155 179 179 191 200 208 193 191 185 190 174 158 109 55 37 30 23 21 23 22 22 15 23 40 36 51 35 18 56 65 74 92 124
142 138 157 181 200 179 173 198 166 181 171 187 178 193 181 176 175 171 170 164 177 176 201 199 138 60 33 32 35 29 30 28 30 32 39 46 31 15 64 76 94 91 120
160 163 169 194 205 186 165 164 159 172 174 159 148 152 110 86 94 90 113 146 174 174 177 183 166 159 97 37 29 43 34 55 55 40 57 32 42 19 32 104 111 120 122
126 136 154 169 188 182 165 167 164 138 129 118 95 85 53 54 71 82 84 111 129 152 151 157 152 152 149 91 76 60 73 52 56 53 44 28 44 28 22 100 134 146 146
102 132 156 172 183 188 193 186 165 128 112 110 107 79 47 41 43 42 25 24 33 99 63 74 55 50 87 100 122 89 91 81 60 41 21 16 34 24 9 85 163 160 168
148 128 155 171 199 208 203 209 176 145 125 121 99 73 24 7 20 23 19 23 12 19 16 18 20 51 61 87 105 112 124 99 100 73 36 14 7 24 39 20 157 201 182
184 173 168 185 208 215 220 198 162 139 124 104 85 52 23 15 17 8 11 9 -10 -17 -17 -11 -9 5 25 52 81 93 88 95 79 85 83 26 16 -2 4 33 97 189 189
177 160 150 177 195 205 213 188 150 119 95 86 80 103 104 65 40 19 4 8 4 7 20 15 5 -11 -1 33 53 80 95 102 100 79 66 43 38 45 21 -2 70 144 178
203 162 151 174 200 209 189 174 143 114 104 114 111 136 122 77 49 27 5 -13 -2 3 22 43 63 75 61 64 71 61 70 88 91 106 80 59 53 50 55 41 30 115 164
219 154 141 150 162 174 167 149 143 157 122 110 86 90 95 87 67 24 11 6 6 -2 5 18 37 60 71 75 68 55 70 76 75 101 99 81 64 65 49 79 63 63 178
194 158 146 136 130 134 122 109 122 104 99 79 75 58 56 55 65 36 33 29 28 21 51 71 96 91 81 77 72 61 49 69 65 82 91 103 123 101 90 74 82 101 115
193 163 125 135 161 146 122 117 111 109 104 91 76 63 53 16 19 -8 1 9 9 35 74 104 106 114 123 121 114 96 70 51 68 100 93 82 93 126 120 109 99 131 127
184 134 104 142 150 134 124 101 105 96 80 73 39 50 35 27 12 -2 -13 -2 16 27 50 68 73 89 114 125 97 77 66 105 78 97 113 109 72 85 93 89 141 135 161
127 99 104 128 143 136 116 86 63 34 36 8 11 24 16 7 -3 -3 -5 5 21 30 69 105 114 93 108 136 101 96 32 55 195 210 148 149 151 140 140 90 66 118 137
114 87 121 136 138 140 128 101 72 34 35 50 42 12 -15 -34 -38 -38 -22 -16 -3 17 41 80 101 133 107 157 169 136 96 149 87 186 341 271 315 312 221 224 140 69 109
126 137 143 139 116 130 123 116 101 78 57 43 16 -6 -33 -51 -58 -75 -74 -64 -53 -19 23 52 84 107 114 125 155 150 145 116 87 6 157 229 242 246 279 292 268 190 94
203 180 157 134 139 129 120 94 74 61 43 25 21 17 5 -22 -38 -54 -83 -82 -66 -44 -1 36 66 95 93 91 119 135 149 120 98 80 12 2 117 184 250 365 365 306 263
206 167 164 138 109 82 93 93 94 92 64 39 33 23 17 5 4 -15 -65 -92 -87 -76 -56 -7 50 82 93 101 103 107 127 116 120 115 67 28 50 140 97 189 159 203 264

GFSSE_con_3kmhel_165.txt.gz
Helicity
58 87 101 107 103 79 81 91 85 76 78 79 78 77 72 69 65 60 58 58 59 69 73 71 75 72 66 57 50 42 39 35 33 26 28 31 36 36 44 41 39 38 45
53 79 77 125 94 63 76 108 105 106 91 89 83 75 70 69 67 68 65 59 53 54 63 73 68 61 58 55 46 45 38 37 36 34 30 31 34 36 34 31 44 41 48
82 61 89 144 115 87 60 101 110 109 113 93 87 83 82 76 69 63 60 60 57 43 37 45 51 48 44 43 42 40 39 41 36 33 40 32 28 32 26 16 40 51 67
99 96 108 121 128 95 81 104 104 108 107 88 88 99 99 108 98 78 65 53 44 44 40 27 27 34 34 30 35 34 38 41 37 35 44 25 18 17 24 21 32 41 52
90 104 207 99 139 119 92 106 105 106 96 101 97 92 96 102 120 124 112 79 53 42 38 36 30 33 33 28 25 26 32 32 29 36 37 25 16 10 11 20 35 46 44
128 149 210 178 193 127 118 122 109 112 119 128 128 142 153 166 160 147 143 136 118 85 67 47 43 32 29 27 23 21 23 26 23 33 31 27 19 7 7 19 37 51 63
159 191 179 237 204 180 163 150 140 139 156 159 152 164 190 207 216 208 204 192 173 161 128 88 58 45 32 27 24 21 23 23 25 30 33 25 25 14 7 50 61 56 68
167 160 172 204 234 220 180 177 168 167 184 175 178 182 201 225 231 220 207 209 194 171 160 135 100 64 52 37 31 30 20 25 27 31 35 33 10 12 26 19 54 67 72
131 136 165 189 197 187 191 178 158 172 174 173 184 190 198 197 197 188 185 176 181 186 182 169 174 165 97 60 45 41 35 33 30 37 41 42 16 4 -10 -13 70 80 79
164 167 175 167 151 156 154 179 171 181 171 162 181 189 195 185 176 167 163 169 166 165 192 181 173 177 172 120 70 54 45 49 49 34 41 48 27 8 10 17 79 89 92
219 189 164 170 172 161 157 164 167 172 176 166 160 173 139 104 99 115 145 151 158 163 178 180 154 156 166 158 163 106 64 76 81 70 56 26 26 11 0 21 48 88 101
218 212 184 189 202 192 172 163 169 170 155 146 131 102 78 75 78 81 99 123 137 159 156 160 149 129 119 81 88 127 98 76 78 74 58 12 -7 17 27 18 16 69 93
168 191 197 190 196 205 194 180 192 170 163 146 135 104 79 55 43 28 24 29 35 89 43 75 73 54 60 55 67 68 92 113 91 69 63 -7 -4 -5 -4 22 22 64 77
168 168 188 188 194 206 184 189 184 174 160 147 116 113 62 27 12 -3 -10 -1 -2 -2 11 13 25 55 62 61 65 67 74 79 83 98 75 43 58 21 11 5 9 12 88
176 170 188 200 218 229 243 225 215 195 160 123 123 98 41 15 -8 -23 -22 -19 -30 -26 -25 -11 4 17 36 60 80 88 83 91 102 93 98 69 60 102 76 33 22 12 60
170 152 151 162 157 171 180 188 173 161 130 105 97 90 65 15 9 7 -5 -12 -10 -15 -17 -22 -26 -26 -6 12 32 86 95 80 89 98 106 96 69 57 94 83 45 33 18
176 150 144 157 171 176 171 163 161 146 131 122 95 80 71 51 36 11 4 15 23 10 2 4 10 24 27 19 15 20 51 93 97 97 95 95 80 73 75 99 97 61 27
202 204 164 142 144 156 160 158 155 151 124 109 90 77 92 92 82 39 19 10 13 5 19 29 29 19 19 30 43 60 68 67 85 109 103 96 96 73 48 62 81 81 94
191 162 137 125 117 123 142 143 143 143 117 101 86 82 84 71 65 44 28 29 30 25 29 40 52 50 42 36 22 38 55 77 91 97 96 107 91 93 84 64 78 69 82
198 142 109 92 99 110 119 123 125 117 106 81 71 50 45 19 25 2 -12 -2 6 15 22 60 86 86 66 62 54 58 41 69 85 104 127 114 109 105 85 93 73 74 62
196 141 103 104 105 100 97 89 101 94 88 72 45 27 7 -9 -2 -12 -17 -15 -8 -15 22 52 42 71 76 98 37 38 60 127 134 146 144 159 167 173 151 122 129 80 51
170 119 92 87 108 120 107 94 68 50 56 34 31 41 47 30 9 -28 -40 -60 -48 -35 -3 42 70 58 59 103 9 34 3 110 245 304 212 308 325 364 330 264 175 159 120
139 97 72 88 109 136 149 101 82 62 55 65 78 59 38 29 11 -31 -51 -76 -88 -79 -54 -17 22 66 63 129 147 38 27 109 63 179 346 268 317 305 340 383 393 362 269
109 65 67 102 139 147 140 138 111 84 63 59 53 41 41 44 37 11 -32 -55 -86 -103 -68 -38 -6 30 54 98 120 165 132 95 28 6 128 255 213 237 305 317 326 367 373
53 75 92 140 138 151 150 110 87 86 76 69 67 69 64 42 45 44 15 -26 -48 -90 -100 -73 -29 4 21 53 103 134 159 145 95 83 53 107 178 174 198 248 243 208 259
85 102 135 140 149 123 92 93 85 94 79 78 73 67 59 44 48 63 55 26 -6 -42 -74 -107 -90 -41 -2 32 70 101 108 97 127 94 44 49 89 201 200 205 160 132 141

GFSSE_con_3kmhel_168.txt.gz
Helicity
74 19 25 45 61 94 117 107 83 83 96 101 95 85 86 86 87 86 87 89 87 83 75 70 66 71 71 60 54 55 53 52 44 43 35 26 21 25 34 34 29 23 36
106 47 63 67 65 97 129 117 86 81 105 108 99 91 85 81 81 82 73 65 67 74 74 70 64 58 62 65 63 52 48 46 44 43 37 33 22 21 28 28 21 9 25
132 28 10 58 84 94 110 110 94 83 97 112 112 93 87 98 99 103 95 85 67 60 60 58 58 53 47 50 65 62 54 45 42 43 36 32 22 14 22 17 33 26 31
96 62 67 92 94 136 182 111 116 87 97 92 95 108 113 124 131 131 120 105 82 64 59 54 47 46 50 42 45 59 52 42 43 38 33 33 18 3 12 20 33 37 41
75 102 105 146 187 202 211 134 130 104 109 101 108 97 107 128 155 173 171 170 152 118 89 73 63 63 51 42 37 37 49 45 38 44 34 32 25 9 -10 13 31 37 39
147 194 177 167 215 187 205 157 157 128 137 142 141 142 151 155 176 205 204 209 202 166 138 121 100 79 61 50 41 35 32 43 40 42 40 34 22 8 -10 7 24 33 43
165 183 224 254 220 214 177 161 160 143 148 155 162 177 183 179 189 201 197 198 190 185 169 151 142 115 79 68 55 51 36 34 44 42 43 39 27 15 -4 -8 14 48 47
145 158 202 203 200 175 174 171 168 155 156 165 173 186 189 184 200 212 211 204 191 191 170 162 163 160 135 99 66 62 50 37 44 49 49 47 31 19 8 17 21 38 53
163 209 200 173 147 167 170 178 167 162 166 173 178 182 177 174 184 189 194 185 175 180 189 174 173 172 162 148 131 81 64 52 53 54 55 58 36 27 14 6 -3 11 41
236 206 179 173 163 159 160 184 189 193 182 190 194 198 185 179 178 176 166 163 150 154 162 159 157 178 185 152 150 161 145 76 62 58 62 63 38 30 21 10 6 -1 73
217 201 166 156 148 143 156 166 164 173 170 177 178 187 167 118 113 126 141 132 129 135 133 132 126 122 134 139 147 146 136 97 76 62 59 54 47 34 32 20 18 24 77
158 168 158 152 142 133 136 157 150 146 148 152 155 144 116 113 95 91 107 116 108 111 109 127 137 106 81 38 42 99 76 97 105 85 61 41 46 30 33 43 37 31 39
126 148 165 159 163 176 177 159 155 145 132 132 149 129 100 76 70 58 39 35 25 71 31 52 59 62 64 38 34 29 46 71 79 83 99 64 63 67 55 41 44 3 12
157 142 140 140 142 143 127 140 128 124 117 110 99 92 57 38 32 21 -4 -3 -9 -14 4 20 22 42 52 63 54 44 43 43 62 68 80 138 131 107 89 84 72 60 8
158 139 138 139 145 149 175 161 168 152 128 104 97 86 53 33 16 -5 -23 -31 -40 -28 -27 -18 3 35 56 61 71 69 57 49 48 50 55 92 107 159 135 116 110 101 66
116 115 116 134 129 144 156 153 127 116 97 88 73 69 61 27 21 11 5 -7 -10 -14 -14 -18 -15 -14 -2 36 67 79 82 73 56 58 62 58 78 93 128 151 129 119 117
105 80 96 116 121 141 145 140 126 103 88 81 73 74 66 55 43 21 3 7 11 6 13 2 -2 10 19 25 23 33 56 66 89 80 72 75 69 82 94 99 129 118 115
131 124 122 112 118 123 118 104 102 97 82 78 79 84 104 98 85 49 24 13 18 -14 -33 -37 -7 5 9 13 26 45 43 60 68 86 97 91 89 87 80 105 123 116 107
141 123 125 113 108 110 114 104 104 104 106 101 97 100 103 94 74 40 14 7 13 -12 -26 -15 -5 -26 -11 9 16 26 50 79 124 99 103 121 121 114 114 80 92 132 154
166 144 124 107 96 86 83 80 93 110 112 108 94 87 73 63 53 38 2 2 -11 -29 -34 -28 -9 2 -3 -5 13 0 63 92 90 157 203 169 166 175 162 152 121 110 122
231 182 144 114 76 45 60 66 86 91 90 99 73 77 69 71 56 44 24 5 -18 -36 -35 -30 -28 -4 0 23 -34 21 79 109 103 245 232 244 251 244 231 246 252 183 151
215 160 123 104 93 84 72 74 77 64 85 69 58 69 66 75 70 43 39 19 -11 -41 -44 -50 -34 -37 -21 26 -28 -47 -1 126 259 316 288 237 329 326 326 317 328 375 309
186 121 99 86 97 100 105 107 93 88 71 63 68 63 69 75 77 74 62 43 13 -30 -57 -82 -77 -53 -33 -4 66 -31 4 64 80 177 303 268 282 289 271 296 300 308 306
128 115 89 85 87 118 152 139 123 90 62 58 56 63 71 80 82 83 74 63 36 6 -10 -59 -90 -95 -61 -15 16 78 64 29 6 10 141 215 202 207 216 249 206 212 243
149 117 97 80 126 129 139 118 107 85 58 53 63 82 83 83 89 95 74 65 48 23 9 -13 -47 -88 -109 -69 -19 38 79 102 75 42 20 107 178 204 208 198 168 156 190
146 131 60 87 96 151 141 140 115 97 82 97 92 96 77 60 68 82 62 55 53 48 31 6 -16 -40 -76 -82 -54 -22 15 34 101 68 47 99 88 226 237 146 178 181 184

GFSSE_con_3kmhel_171.txt.gz
Helicity
108 53 60 44 56 64 52 56 69 55 61 78 86 89 92 99 99 96 99 100 93 94 87 82 76 71 73 69 61 60 61 54 53 46 42 34 27 26 27 27 24 18 26
115 77 60 53 39 56 75 81 105 95 89 89 81 88 92 88 88 88 90 95 97 96 90 80 69 68 67 69 61 48 51 60 53 41 41 37 19 22 21 20 16 22 21
161 109 74 84 78 75 119 127 169 153 136 124 103 77 74 73 71 75 81 81 82 81 83 79 63 56 62 59 57 64 50 51 54 44 36 26 24 18 17 12 9 17 21
166 127 100 112 117 119 123 191 168 152 163 140 135 105 118 125 125 119 108 97 88 76 62 62 61 56 66 53 48 49 62 48 42 45 31 30 24 26 10 9 6 8 21
176 123 94 108 127 139 167 160 169 141 164 146 139 143 163 174 172 165 159 155 161 154 129 108 93 93 80 66 57 48 45 58 46 28 35 29 23 29 16 1 8 11 18
155 149 160 157 180 162 173 136 165 145 158 139 137 138 162 181 200 207 200 186 188 182 169 158 148 138 100 72 66 57 53 41 53 39 33 36 20 27 15 14 -0 7 18
141 122 165 189 208 192 181 160 163 160 172 157 162 159 173 176 187 205 212 202 199 190 180 171 161 160 152 129 88 69 61 51 45 51 41 34 25 26 18 18 10 14 24
173 186 212 218 223 219 182 191 174 174 172 169 175 172 176 179 176 183 174 176 183 178 168 157 152 152 161 162 151 137 97 63 57 50 51 45 42 24 20 24 24 21 38
235 185 162 170 176 214 180 176 155 171 169 168 173 170 180 179 178 165 174 155 153 142 143 147 137 131 126 128 143 147 149 118 64 58 52 52 57 36 20 19 34 33 33
225 182 164 150 151 139 139 145 157 181 190 199 197 197 175 167 168 166 149 135 130 127 124 109 116 121 122 109 101 109 132 121 87 68 62 59 59 41 29 12 30 30 23
203 207 170 141 137 136 118 127 144 156 166 171 169 175 144 116 113 115 124 121 112 113 99 96 100 98 100 91 97 109 82 89 103 102 78 59 53 47 46 39 29 28 25
174 162 145 133 123 98 90 89 97 116 133 140 140 134 107 105 103 96 91 101 96 105 85 90 78 68 71 69 72 94 96 96 86 85 88 151 107 63 57 54 53 41 33
144 137 136 122 110 103 98 95 105 107 104 113 141 126 109 88 79 72 67 70 69 84 57 57 61 62 71 59 54 60 91 90 90 89 96 116 137 174 120 67 70 62 44
138 116 100 91 88 89 77 91 93 102 103 99 108 119 91 73 75 69 57 55 46 41 50 46 24 37 51 60 71 64 61 74 104 101 84 86 113 129 135 155 109 84 71
144 101 75 67 77 85 107 104 115 115 109 101 96 95 76 61 50 41 40 37 31 26 24 24 29 33 43 54 61 70 86 78 68 71 82 75 80 100 112 127 154 123 101
111 98 80 87 86 88 98 107 100 103 98 96 90 84 77 58 57 47 44 42 36 26 16 6 14 14 23 40 57 77 80 89 84 65 55 58 72 89 107 115 110 148 147
108 82 89 87 89 104 112 115 111 100 82 72 62 82 86 84 76 57 39 26 17 -2 -8 -12 -13 -15 -8 10 38 49 61 70 83 99 89 66 63 58 78 108 114 117 137
122 119 112 99 112 118 107 94 82 75 76 79 91 105 126 123 110 67 51 42 34 4 -13 -25 -33 -30 -18 -12 5 29 54 61 63 79 100 111 100 100 91 82 130 138 148
168 138 121 105 101 91 82 73 81 90 96 103 108 111 118 104 89 50 40 35 20 -4 -11 -12 -27 -40 -38 -25 -20 4 20 60 96 103 105 120 128 113 114 113 102 132 139
178 145 123 101 85 79 68 75 87 99 112 121 124 121 124 99 93 78 58 50 25 9 -0 -9 -20 -47 -73 -48 -26 -26 20 38 79 160 213 194 204 209 205 174 169 152 143
194 156 114 88 69 54 58 71 77 91 106 116 116 121 113 96 82 79 56 49 34 24 15 1 -17 -20 -71 -39 -87 -30 16 74 144 252 207 215 328 284 306 294 254 248 229
190 149 130 104 68 54 50 57 59 73 94 88 86 83 78 76 87 75 71 59 56 31 33 19 -0 -37 -112 -74 -88 -138 -50 13 127 211 241 244 279 282 311 297 285 300 262
198 162 126 104 88 84 71 70 87 79 76 90 82 66 80 91 92 80 76 58 55 46 37 20 -5 -19 -65 -139 -118 -109 -111 -25 51 147 227 224 215 259 251 269 252 258 278
179 145 127 112 98 92 67 70 89 102 99 84 64 69 82 93 88 86 83 72 60 40 50 29 3 -19 -48 -72 -134 -92 -80 -45 -33 -7 128 174 204 196 193 172 192 209 252
158 127 102 94 115 105 102 82 95 125 92 61 57 84 88 98 101 97 84 76 67 48 43 36 21 15 -24 -47 -75 -90 -111 -48 41 3 36 169 234 237 208 176 185 180 204
136 106 95 100 104 82 84 103 98 84 64 71 96 92 90 89 79 89 74 65 64 57 54 39 27 24 -8 -44 -65 -83 -78 -53 -21 7 39 105 160 196 173 170 213 181 163

GFSSE_con_3kmhel_174.txt.gz
Helicity
124 103 93 91 62 31 15 19 27 40 63 89 94 97 104 91 83 72 68 71 67 64 63 67 75 79 66 60 53 51 57 53 40 42 45 39 34 34 32 35 18 7 54
141 148 158 126 119 103 47 40 48 58 75 85 102 94 95 88 81 70 68 70 70 68 74 71 59 62 65 58 54 51 47 45 44 29 24 22 27 29 28 24 15 45 41
187 151 136 145 121 128 137 124 126 116 129 128 127 108 89 79 83 71 69 69 64 52 57 61 55 54 57 54 54 53 47 36 33 32 8 -8 39 39 26 25 18 23 25
180 164 157 158 143 152 167 160 152 131 156 156 150 160 157 149 143 142 152 151 146 111 66 54 49 62 54 66 56 53 53 42 31 21 9 20 24 59 27 23 21 13 14
177 153 154 143 147 125 127 137 177 162 158 169 159 145 152 155 164 167 165 160 155 152 146 152 139 126 103 79 65 57 56 47 36 16 19 26 19 74 39 26 20 22 16
157 124 147 156 175 152 155 115 311 176 158 176 164 149 155 163 182 184 187 182 179 159 149 152 152 149 139 120 100 91 66 55 32 15 32 44 19 72 43 21 14 17 33
170 152 154 207 193 169 155 178 217 171 152 156 150 152 157 163 181 179 178 184 178 161 149 145 147 145 149 131 130 126 113 79 36 26 35 37 26 69 36 23 28 22 21
159 152 143 231 215 199 187 169 163 156 151 161 159 164 172 179 174 172 160 154 145 132 126 109 124 128 130 118 123 113 106 99 55 27 36 40 79 61 36 29 34 30 25
177 149 104 197 237 229 220 186 185 150 142 139 136 130 134 135 135 126 135 131 127 122 110 98 90 84 94 99 95 100 102 91 59 54 57 51 92 62 39 33 39 39 34
183 145 146 142 198 210 176 174 148 131 130 142 141 126 106 97 110 132 128 136 121 111 97 92 86 76 71 65 71 67 75 71 38 69 72 63 107 66 48 36 41 42 41
160 151 114 108 111 124 111 101 91 109 124 123 117 141 109 107 113 107 114 115 106 107 82 85 78 70 47 4 43 55 47 51 75 68 74 123 125 73 49 47 48 41 44
143 130 108 69 66 74 87 81 90 100 113 122 123 119 104 102 101 86 71 71 71 105 65 80 61 53 36 73 54 39 90 98 57 58 71 98 98 103 117 75 66 52 50
138 113 94 93 91 83 87 80 87 90 94 101 126 121 107 94 93 79 67 63 65 73 70 67 65 66 75 71 79 61 73 68 78 75 70 133 114 118 119 117 146 76 59
132 114 99 99 90 91 83 90 91 97 102 107 118 128 98 82 76 68 59 56 52 51 53 44 39 50 50 53 56 63 65 58 81 86 84 78 72 75 104 108 117 121 102
128 116 103 90 87 81 79 79 85 83 82 81 90 111 99 85 74 68 68 65 61 54 51 47 53 57 59 56 58 55 55 62 61 80 84 86 45 57 78 91 100 118 126
143 127 91 76 62 58 64 67 62 69 67 78 83 89 94 80 76 68 66 64 57 44 31 26 30 28 33 37 38 43 48 55 64 68 79 88 63 36 59 93 87 97 126
134 109 90 74 66 70 75 80 87 95 97 104 107 129 129 124 103 90 83 79 63 40 30 19 11 -3 -4 2 21 28 29 35 57 82 84 83 90 56 26 52 106 104 98
141 120 97 79 77 88 95 92 93 103 112 121 118 114 123 122 111 90 81 74 53 38 32 20 3 -9 -19 -27 -19 -9 9 25 47 58 77 105 115 123 101 33 57 121 121
165 136 115 98 97 97 90 86 92 99 108 105 100 105 112 115 116 87 77 62 34 28 29 27 12 -6 -27 -25 -20 -34 -23 -3 26 67 98 131 137 142 157 130 40 65 100
178 151 126 110 103 90 73 72 80 91 99 101 109 116 126 114 107 82 63 56 36 35 33 35 23 0 -28 -20 -52 -55 -50 -27 35 92 124 134 223 192 242 227 225 233 116
194 169 149 123 103 80 77 83 91 97 88 91 102 121 114 100 86 82 62 52 44 46 50 50 22 22 -9 -1 -48 -27 -86 -14 31 86 83 115 170 210 259 266 196 241 235
220 197 166 144 115 89 82 93 85 77 84 96 103 107 97 81 87 73 70 69 83 71 76 76 73 45 -5 -10 -63 -141 -59 -82 31 63 93 97 106 135 180 189 206 181 274
194 166 144 120 105 103 88 76 80 75 79 84 89 84 77 74 83 82 96 91 78 67 69 67 70 70 41 8 -33 -78 -96 -30 7 -7 72 121 190 148 97 143 254 278 230
186 160 128 107 89 76 60 64 62 82 85 96 87 75 72 93 89 91 90 75 63 62 68 62 59 58 52 47 -23 -47 -89 -61 -48 -21 20 111 178 214 213 211 197 190 179
174 157 145 127 110 75 71 79 84 78 102 77 68 67 81 78 78 82 85 83 91 72 68 69 67 69 50 37 15 -10 -74 -105 -24 -25 -5 53 138 137 158 150 180 145 167
158 136 125 117 124 132 120 137 124 101 81 77 82 74 73 73 83 99 95 100 91 80 78 62 50 54 51 37 20 3 -32 -69 -76 -50 -19 12 63 104 85 48 98 133 118

GFSSE_con_3kmhel_177.txt.gz
Helicity
221 84 137 115 70 62 58 55 48 54 56 77 95 94 92 87 76 68 60 49 41 45 56 56 55 54 48 39 35 38 35 30 31 28 26 25 23 34 35 32 18 35 57
236 159 182 174 145 97 73 65 57 61 68 72 103 93 91 84 72 71 69 62 50 52 55 54 53 52 43 43 41 37 35 25 26 21 11 -4 18 24 31 29 33 81 54
217 154 167 188 179 151 139 139 115 99 99 87 96 96 88 90 86 92 107 92 70 62 58 63 63 59 47 42 41 37 37 30 20 14 -5 -15 128 14 36 31 35 47 46
204 208 184 182 152 134 132 124 122 120 177 169 162 153 147 138 126 135 147 139 135 133 129 119 104 85 79 65 53 42 35 32 28 12 -2 13 7 98 51 29 27 26 28
208 179 205 213 194 179 176 155 140 132 170 223 176 162 149 134 132 152 158 151 147 150 154 153 146 124 115 100 91 76 52 37 22 9 -2 2 20 103 45 38 15 18 25
172 182 214 219 197 174 165 153 156 192 218 210 185 150 147 138 139 146 159 156 148 140 129 128 122 122 123 116 113 108 85 57 30 8 -11 45 43 78 46 46 34 32 27
248 259 246 218 174 155 157 156 170 204 157 170 172 138 138 134 135 137 142 139 135 130 117 112 107 100 102 96 93 105 101 78 40 25 22 21 40 117 74 52 35 38 28
237 253 271 233 203 182 174 180 181 178 153 162 151 132 128 132 131 135 137 131 127 119 108 104 93 83 68 65 65 64 74 82 59 36 27 9 111 118 80 49 44 35 38
178 168 206 183 206 254 265 230 178 143 154 149 125 109 102 106 111 107 123 121 123 113 105 97 84 72 62 50 34 44 40 43 48 56 43 60 52 99 67 52 52 40 34
176 154 136 78 91 236 266 226 175 158 139 139 122 103 78 50 56 92 99 115 113 112 97 81 67 64 47 25 13 8 13 11 27 25 72 66 95 138 83 52 43 41 39
154 142 110 70 132 131 126 130 114 98 85 87 77 95 58 89 86 80 99 95 106 112 78 74 64 61 35 20 -7 8 19 27 23 59 62 147 146 91 106 86 58 44 43
147 138 106 72 69 78 91 80 78 85 100 110 111 106 92 80 84 75 70 45 60 97 44 72 51 54 44 81 72 28 62 85 78 52 52 143 144 102 95 115 122 124 54
147 138 110 80 91 78 92 68 72 74 79 82 113 112 94 87 95 93 90 88 82 82 79 76 69 73 76 64 75 73 76 64 61 65 93 99 80 64 85 86 98 108 152
147 129 98 82 100 120 73 103 91 96 93 101 107 122 103 102 104 107 98 86 70 65 69 68 63 65 62 57 57 63 72 72 79 87 99 106 48 38 37 60 77 91 95
152 131 128 112 112 101 100 93 96 98 109 106 107 122 127 119 106 95 78 70 66 69 72 71 69 62 56 53 52 47 50 59 67 78 86 107 67 26 24 36 74 94 96
157 143 136 141 123 113 111 105 98 105 85 97 102 109 118 103 98 90 84 85 85 85 78 68 63 49 42 44 39 42 39 37 44 62 73 82 87 42 15 16 42 77 86
137 154 162 145 121 111 95 87 89 83 79 77 82 115 134 137 117 108 106 105 108 97 90 74 63 45 34 30 37 36 22 23 31 49 61 65 81 68 33 13 5 31 58
144 153 138 122 101 88 83 84 93 92 93 98 111 125 143 150 140 121 112 115 94 82 74 58 49 49 39 35 36 19 8 12 21 11 41 117 129 122 100 68 49 56 87
174 167 151 128 115 108 112 116 122 120 128 133 142 138 146 143 136 116 120 109 72 66 68 69 50 38 27 33 26 -2 3 -17 0 69 55 94 114 200 238 305 249 156 141
168 159 155 149 141 130 124 130 133 137 141 129 122 119 122 115 121 115 102 84 63 71 64 54 41 44 31 42 7 -11 -46 23 60 20 25 65 53 103 144 175 159 174 186
191 184 182 157 132 100 98 113 119 134 117 111 101 110 114 122 120 108 79 74 66 69 73 75 56 62 52 51 -2 0 -36 -4 40 -24 23 40 125 133 94 125 177 256 270
190 203 164 141 117 115 115 154 144 128 127 110 102 117 131 126 110 88 78 68 73 67 75 82 94 87 64 67 50 -25 17 -24 39 32 30 105 156 182 249 281 248 252 211
164 159 154 148 140 144 127 98 103 92 73 78 99 113 112 91 81 77 84 88 92 95 96 103 105 107 95 80 67 22 -13 37 22 20 51 53 61 72 125 179 156 182 175
192 208 197 186 174 150 125 116 105 113 118 141 120 122 94 102 99 104 110 109 111 99 105 99 94 94 88 85 49 33 -10 -19 -8 8 20 73 79 66 115 128 129 116 167
187 208 207 178 167 148 146 138 120 164 168 141 119 94 88 81 93 99 109 107 98 88 87 92 83 84 67 58 51 42 11 -7 17 -5 6 36 55 43 35 29 47 77 119
200 210 174 143 131 120 123 125 139 128 117 101 96 81 83 80 93 108 95 80 87 77 75 68 60 68 63 65 55 51 38 7 8 -4 12 8 12 32 29 -17 -8 14 40

GFSSE_con_3kmhel_183.txt.gz
Helicity
109 95 153 178 168 148 139 113 91 78 74 62 62 63 58 58 54 49 44 39 34 38 39 36 32 35 33 39 38 28 25 21 18 13 14 20 -1 -1 19 26 44 40 50
147 146 154 203 201 172 147 128 100 89 83 76 80 80 73 65 71 70 59 53 46 40 42 40 41 42 41 45 39 32 24 20 15 8 4 6 -6 -6 13 33 44 49 46
180 232 215 236 252 200 161 139 116 107 105 99 90 103 104 98 80 87 95 102 94 82 73 68 68 59 52 52 55 47 34 26 24 22 18 15 4 1 21 30 37 41 33
186 226 240 262 244 244 215 182 148 122 119 128 125 108 97 91 88 80 90 88 76 82 75 66 59 57 52 57 55 52 51 41 32 32 23 41 37 41 7 34 34 27 24
217 252 285 251 224 225 208 196 167 170 168 147 128 132 120 99 96 94 90 80 80 69 62 61 51 53 51 58 54 46 38 37 37 28 25 44 76 61 60 43 50 35 28
210 264 268 265 232 228 209 195 192 177 168 159 142 153 135 107 89 86 95 85 82 79 71 64 52 51 47 46 51 43 34 26 22 29 35 38 73 71 53 75 63 47 59
227 257 294 293 284 278 255 243 212 191 175 144 144 130 118 123 97 96 100 93 80 76 75 66 50 54 44 44 46 31 26 20 13 19 35 45 73 56 61 68 61 67 54
252 273 283 253 267 259 245 224 209 189 165 140 139 115 108 131 99 90 90 89 79 73 76 70 50 61 52 49 47 35 25 25 30 25 36 60 73 37 55 65 54 52 54
227 265 246 232 221 215 227 228 210 200 188 166 159 98 105 103 75 93 76 79 79 73 73 78 70 78 87 91 77 54 47 75 86 93 88 117 99 43 59 40 61 54 70
171 166 167 179 178 192 166 161 167 194 191 202 163 158 180 146 90 102 70 70 80 84 80 89 90 110 122 121 120 75 89 113 108 129 123 94 158 180 129 146 152 122 136
118 118 116 131 131 133 159 147 149 161 216 221 273 188 100 93 92 87 64 70 93 120 84 112 106 126 125 127 121 122 102 69 83 118 71 135 142 149 122 105 109 104 100
131 118 107 106 108 116 157 148 144 164 188 204 232 163 126 136 121 82 72 80 90 149 138 139 136 121 103 96 88 97 82 97 115 144 137 148 186 154 118 104 79 76 67
115 113 92 91 60 73 112 123 156 170 168 170 184 173 160 135 149 135 129 120 122 130 116 109 111 112 116 104 105 105 95 88 91 117 153 158 174 157 137 82 60 49 48
146 130 80 76 73 51 128 134 138 144 138 164 184 238 185 165 171 162 148 134 131 127 132 125 125 122 124 118 121 111 112 109 106 111 136 188 189 197 174 146 79 56 90
189 168 116 145 147 200 256 215 234 225 176 148 182 226 177 181 155 160 146 137 116 121 133 132 129 127 135 133 115 111 116 113 98 90 98 234 239 283 224 198 193 154 122
196 198 170 193 238 286 287 264 226 207 181 158 190 218 210 194 151 156 154 151 155 133 132 129 133 137 152 119 120 128 128 98 125 131 82 119 123 149 205 176 174 197 227
188 209 193 215 263 266 241 223 202 179 159 162 184 217 235 250 187 161 163 169 160 116 133 135 150 148 141 114 129 125 115 137 167 94 139 123 176 210 248 243 283 321 299
238 255 267 274 244 238 232 214 223 177 146 155 174 191 223 249 179 159 161 180 142 117 127 136 153 162 128 122 121 168 110 114 116 150 127 105 113 130 154 205 180 190 190
271 254 287 262 254 269 254 221 232 227 200 170 180 193 218 230 192 156 167 176 113 112 145 152 158 143 118 134 121 185 93 161 200 135 122 116 105 105 90 137 149 163 174
305 309 329 282 251 234 234 237 257 263 215 181 185 185 192 194 193 134 141 166 108 137 168 163 161 133 96 124 146 148 173 203 152 108 90 55 41 63 88 109 71 88 160
448 360 279 232 187 184 182 198 224 198 187 183 164 162 166 166 167 160 144 183 140 156 156 153 115 120 133 164 147 196 221 204 164 70 55 28 21 21 58 78 63 62 63
445 310 233 176 136 107 109 114 145 154 150 157 152 150 147 164 155 165 167 199 196 174 133 142 148 107 99 146 128 121 113 103 131 96 38 25 12 12 56 74 58 77 73
375 305 189 149 104 120 228 251 247 230 204 198 167 163 159 160 175 194 213 194 177 134 101 136 133 138 112 127 178 117 123 107 80 82 82 43 16 18 30 48 53 51 52
325 273 201 198 287 247 250 282 224 213 177 130 114 120 129 149 178 185 187 140 113 121 127 124 138 130 116 135 91 156 141 98 94 74 50 78 10 22 -4 -25 16 26 44
324 305 308 322 263 254 178 191 219 212 236 173 131 133 146 161 166 128 127 133 145 141 137 126 133 108 91 85 108 79 105 93 108 78 60 45 11 12 -50 -74 -37 -13 16
368 374 382 337 290 282 265 236 238 295 208 183 148 132 110 103 115 118 115 137 158 166 138 102 96 84 74 62 83 120 128 89 81 66 52 38 27 10 -8 -40 -46 -38 -33

GFSSE_con_3kmhel_186.txt.gz
Helicity
87 74 88 79 108 137 151 151 132 115 107 102 97 99 96 92 83 80 71 61 56 53 53 53 54 52 36 29 35 35 33 29 37 47 46 40 22 8 25 30 31 36 33
88 98 120 113 113 168 181 171 156 144 125 116 110 107 103 94 80 74 62 52 50 59 57 57 62 53 47 37 45 46 46 45 42 39 53 57 25 -8 7 25 28 34 39
144 143 145 131 147 179 189 185 167 158 139 137 136 134 121 106 93 86 93 91 73 67 64 53 51 49 51 45 46 46 49 57 66 65 62 54 42 -1 15 28 16 27 38
174 167 197 183 190 181 171 187 175 160 154 149 141 123 111 115 111 91 89 84 82 65 62 58 54 52 43 42 44 34 31 40 57 76 54 70 55 37 9 33 17 21 27
186 169 215 239 240 211 191 197 183 172 166 162 146 142 144 140 126 106 98 86 73 66 54 55 52 52 49 47 44 36 22 25 52 61 65 73 76 74 33 38 32 28 24
219 213 222 247 244 231 205 225 243 231 201 179 153 143 139 124 122 109 97 83 70 69 64 62 63 56 48 48 49 41 32 43 40 49 78 87 110 91 16 54 33 33 35
261 251 236 267 271 241 195 182 184 167 140 118 111 115 119 125 120 116 107 93 83 80 76 66 68 72 66 70 72 61 72 76 43 35 57 101 146 144 15 32 34 28 32
267 260 238 215 234 229 195 188 191 186 178 151 131 123 113 119 116 109 121 102 91 95 91 92 97 102 101 104 90 89 92 96 95 92 98 115 143 157 93 46 62 79 68
268 255 195 170 187 211 193 198 206 201 192 178 162 145 137 123 165 122 148 133 106 114 107 115 119 125 129 138 137 108 101 126 122 128 139 138 204 220 196 178 151 150 131
216 194 184 138 132 168 178 178 168 175 188 193 190 181 149 200 265 215 143 141 119 113 137 126 132 139 135 122 121 119 113 137 144 143 169 196 224 204 195 180 176 134 121
176 142 129 142 143 156 144 134 162 175 186 192 170 136 140 131 182 155 127 137 159 157 151 156 136 140 129 117 119 123 123 110 152 161 157 211 221 216 184 158 144 139 128
142 105 101 120 152 165 183 197 235 229 225 223 220 187 189 158 137 150 174 154 178 190 169 161 142 125 106 86 96 112 93 109 137 161 158 194 210 203 187 152 121 102 85
137 129 101 106 114 124 169 196 236 242 235 259 283 237 213 182 172 153 135 142 149 169 134 126 128 128 137 131 122 121 134 151 153 179 199 214 198 199 208 193 138 113 109
149 136 135 117 94 118 169 192 234 252 247 274 258 207 173 169 172 165 160 170 163 148 139 133 131 142 149 132 141 152 165 161 169 149 218 242 271 243 197 165 159 132 102
185 158 153 150 119 150 180 223 244 228 211 197 214 195 162 160 166 177 180 176 176 151 146 148 142 141 145 156 174 192 225 220 187 153 182 282 254 254 273 279 327 310 286
211 193 226 188 178 184 218 273 265 191 170 177 204 201 201 170 168 171 183 190 173 153 143 139 135 132 139 164 205 225 221 225 223 220 187 144 204 206 211 202 247 267 263
225 219 237 260 273 331 307 282 222 162 169 177 196 230 233 189 178 181 188 179 156 141 138 138 135 132 161 194 240 254 266 261 252 229 197 165 123 184 163 194 202 191 198
278 254 291 332 319 318 309 266 204 162 171 187 212 237 239 193 172 177 175 158 137 139 132 134 134 140 174 224 254 289 297 244 208 189 164 126 102 93 139 158 159 166 175
326 324 352 367 350 348 323 263 214 185 169 165 186 215 217 174 178 181 170 146 137 141 148 133 143 141 204 231 289 307 296 258 201 160 148 121 105 101 92 136 148 170 169
466 410 390 366 363 344 344 306 256 207 185 172 187 204 198 195 189 186 179 159 143 149 160 144 148 194 201 232 314 362 300 246 181 137 99 72 76 95 99 113 88 96 180
555 510 428 392 358 365 362 333 247 202 174 183 185 193 202 200 190 193 184 163 146 153 170 159 151 212 311 270 299 323 279 197 166 107 73 54 66 74 85 89 79 78 95
593 466 409 396 353 309 285 250 249 205 176 169 181 211 203 187 182 179 155 143 139 150 176 191 121 116 253 230 171 166 130 126 128 101 48 69 72 57 67 93 92 89 86
509 336 293 284 272 285 311 332 307 244 216 204 204 198 200 185 173 158 150 147 144 145 163 145 139 132 126 248 256 148 147 140 128 91 80 66 58 12 -16 39 44 59 55
373 237 232 241 315 295 283 271 224 225 202 149 156 163 168 153 161 155 150 154 150 123 128 124 129 147 131 143 174 212 195 136 126 118 90 85 50 35 -13 -17 -3 -3 11
306 252 232 254 301 261 230 236 270 234 175 173 163 156 149 152 151 157 155 141 126 105 103 115 145 175 175 160 136 113 158 180 160 107 89 65 37 31 -0 -17 -17 -0 -6
329 267 274 318 298 292 304 342 299 255 222 200 151 149 141 152 152 131 124 117 112 114 121 122 135 141 143 147 152 148 113 101 98 83 93 58 34 40 10 -21 -17 1 18

GFSSE_con_3kmhel_189.txt.gz
Helicity
112 50 26 73 65 76 107 124 147 167 171 160 143 130 125 107 86 65 52 55 58 56 58 66 65 66 60 52 47 46 45 65 72 68 62 46 26 4 1 1 21 22 37
163 87 49 91 86 89 129 143 158 166 178 175 161 152 141 124 108 90 68 64 61 68 76 70 64 59 55 53 51 46 47 69 79 84 91 78 53 23 0 11 13 22 26
187 109 61 99 104 108 125 144 163 164 175 174 166 162 159 158 153 143 132 108 89 75 72 69 64 58 53 51 45 39 49 68 96 106 111 75 52 51 2 21 10 17 27
179 127 95 107 133 117 118 133 152 155 168 172 171 161 143 131 124 112 107 84 69 68 67 68 67 56 56 53 51 50 55 69 97 101 101 100 83 79 18 34 21 18 24
187 139 131 129 147 140 136 149 163 165 173 181 171 152 149 135 125 113 103 90 78 73 78 78 71 70 63 65 64 67 65 58 86 72 79 108 93 88 68 20 22 18 26
177 192 184 170 184 184 164 155 138 154 172 162 156 146 132 124 128 124 114 100 95 86 91 84 78 73 67 65 71 79 75 73 70 47 61 103 114 114 51 33 35 20 20
232 207 213 222 248 227 208 212 187 173 173 172 161 136 112 105 111 127 134 122 107 98 99 93 93 92 91 87 96 97 99 105 82 89 106 127 151 180 121 85 70 92 72
273 263 231 237 295 266 234 218 201 170 164 158 153 148 140 129 114 109 114 126 115 121 116 115 110 121 132 132 112 110 113 126 109 121 158 156 203 230 213 208 188 149 138
296 285 270 274 261 228 213 193 192 176 166 159 157 163 161 163 156 118 129 156 176 174 138 126 129 133 140 143 133 125 133 147 147 151 177 181 190 225 238 204 170 169 155
275 261 207 221 186 170 155 140 149 156 159 158 155 154 160 161 139 187 191 217 189 201 148 138 137 137 143 152 131 123 129 143 123 134 158 185 193 201 218 221 206 187 176
206 209 184 184 151 143 159 153 163 165 176 184 192 199 217 199 194 230 236 197 197 157 146 141 151 155 150 139 131 125 121 117 137 152 146 187 190 172 174 185 195 184 164
185 158 148 166 158 175 192 222 222 236 238 218 200 208 209 196 193 202 116 126 154 161 173 170 172 153 125 95 94 111 110 138 154 166 150 175 186 193 183 159 137 131 132
162 177 155 161 159 194 215 212 233 257 251 246 227 194 194 211 214 192 113 121 147 167 147 158 153 138 131 112 107 132 145 157 181 208 230 248 226 194 170 168 185 191 188
190 179 167 166 171 192 200 221 251 267 270 284 258 212 208 228 213 177 126 135 155 155 180 177 156 144 137 130 141 152 171 192 199 218 269 319 331 328 312 260 257 243 245
175 169 180 187 202 219 234 251 257 254 249 243 259 222 199 193 176 147 148 156 162 167 165 149 135 135 135 147 167 185 221 236 232 223 237 280 279 278 249 242 231 228 220
185 203 231 235 257 270 270 253 246 238 228 230 225 194 177 156 149 159 147 158 177 155 139 132 137 146 151 161 225 248 247 259 260 242 190 209 215 204 199 216 218 227 158
209 260 287 280 282 273 281 250 236 225 217 222 200 179 156 147 146 142 153 177 160 142 146 146 157 160 191 242 291 295 307 310 284 240 181 137 130 197 172 179 191 189 184
307 293 308 375 338 321 324 297 255 218 189 165 164 158 161 162 154 166 170 173 156 156 150 160 159 186 223 268 303 308 310 290 256 227 195 154 134 129 157 167 197 196 199
306 354 391 410 368 417 416 352 269 206 182 171 187 192 186 186 177 165 159 155 150 148 151 144 162 151 230 292 326 343 316 275 219 173 164 151 138 129 113 144 162 204 202
350 364 418 447 438 408 412 383 310 246 195 179 191 197 190 194 178 165 159 146 128 135 139 143 152 208 243 312 384 386 329 271 221 183 144 119 117 111 123 122 115 128 194
413 431 454 474 442 495 474 419 342 297 228 213 211 198 194 179 165 151 145 141 141 141 114 116 147 222 325 326 345 348 324 257 195 150 119 80 78 75 106 94 97 101 118
496 472 459 446 449 441 414 345 344 299 235 216 199 201 189 180 158 150 141 142 138 137 144 133 146 201 260 219 189 198 167 174 220 176 127 99 55 34 71 80 83 87 83
533 542 470 413 395 379 421 432 431 376 327 284 228 226 196 178 158 154 148 137 139 133 140 136 117 133 173 215 224 165 160 148 153 127 120 82 71 71 47 50 49 48 39
577 617 424 346 363 385 373 391 354 310 271 212 187 185 187 171 154 146 137 141 144 138 134 111 107 109 148 187 250 200 185 156 150 146 121 98 89 78 55 35 34 21 20
806 643 440 291 311 356 353 324 295 261 250 253 229 213 190 172 152 152 148 150 144 111 102 106 134 160 144 142 150 172 190 193 169 147 144 109 71 55 44 16 18 38 40
837 587 374 237 243 275 316 296 252 250 241 249 210 200 176 164 160 154 149 131 108 104 97 110 142 165 162 166 157 130 117 133 152 147 148 95 74 61 38 25 25 26 41

GFSSE_con_3kmhel_195.txt.gz
Helicity
180 188 153 144 136 148 84 98 121 133 168 196 202 209 208 204 183 144 121 110 80 55 55 60 69 66 71 68 59 51 55 63 64 51 43 40 20 7 13 24 7 27 30
219 230 220 178 147 160 105 110 137 146 179 193 200 206 206 191 163 139 119 90 71 71 69 79 75 76 82 76 61 52 56 61 67 59 41 30 33 22 21 19 19 37 34
159 217 240 224 180 179 128 103 123 142 156 179 189 186 175 161 147 129 112 84 102 87 74 74 77 79 76 66 69 69 61 63 64 56 42 30 32 47 32 33 39 43 47
160 185 207 188 179 166 140 108 119 130 148 166 170 161 150 142 119 131 156 140 110 95 88 81 86 85 81 79 72 77 65 57 61 50 42 32 26 43 41 61 53 50 47
173 200 195 166 148 148 126 118 119 129 138 150 156 149 134 128 167 160 142 126 110 100 88 87 91 84 85 85 75 76 75 68 69 56 56 44 30 44 76 91 67 76 73
140 176 169 134 120 114 100 114 126 138 137 147 150 152 156 157 149 135 125 107 83 78 80 89 96 102 99 85 83 80 101 97 77 80 79 78 87 153 170 160 141 128 124
154 159 166 140 116 106 133 175 151 161 156 191 200 181 176 174 162 151 136 122 105 90 81 94 99 93 97 91 90 92 106 118 96 91 97 123 131 169 185 182 160 149 143
154 153 162 136 147 169 207 220 319 298 271 245 236 213 198 183 156 138 143 152 145 152 96 98 101 101 96 105 108 115 111 99 93 90 92 99 129 152 170 182 176 157 139
114 156 164 174 192 233 256 256 252 251 254 252 232 195 167 136 149 158 152 187 162 148 84 81 106 127 103 61 108 117 115 113 87 68 70 76 119 142 157 165 167 157 151
143 173 250 214 172 183 208 234 244 248 243 227 194 182 154 179 158 173 244 175 135 112 104 142 152 95 84 86 128 113 102 104 90 74 71 75 113 133 136 131 151 152 167
218 231 249 233 254 249 216 246 243 224 208 195 194 171 243 261 268 220 197 127 106 103 107 115 125 107 136 98 137 109 88 79 85 76 66 64 80 101 146 189 204 209 205
279 280 239 214 244 306 349 344 261 205 230 211 177 175 200 220 224 191 169 138 123 129 163 97 135 80 161 112 111 98 86 91 97 114 120 111 129 141 145 157 175 203 190
236 256 270 243 250 251 247 264 241 213 219 222 187 194 193 199 203 226 177 134 114 152 146 102 146 145 148 132 110 97 96 104 109 136 289 338 252 202 188 152 132 136 131
259 208 247 264 240 230 250 217 222 249 243 204 192 196 244 267 256 227 200 165 183 153 169 137 163 165 188 157 128 132 130 120 120 148 232 290 305 278 242 190 154 131 116
252 252 228 246 268 227 234 256 248 234 208 229 217 215 247 265 233 196 191 222 198 190 144 157 170 174 182 165 152 149 160 154 161 153 199 275 266 241 226 174 169 141 114
287 259 228 224 258 269 247 257 259 253 229 227 233 227 197 222 205 190 196 198 184 137 133 140 147 161 172 167 176 171 166 153 160 157 140 207 238 245 208 192 166 141 137
202 269 240 243 258 276 268 306 319 283 260 227 204 179 186 183 176 159 206 192 157 138 149 163 186 168 170 175 186 179 173 174 167 165 147 122 130 203 203 171 174 173 132
210 278 279 287 282 285 261 281 289 284 262 238 216 189 183 184 180 184 176 172 141 151 157 160 162 194 201 185 192 190 175 165 166 165 138 105 93 84 150 204 202 195 200
259 294 304 328 333 315 313 300 299 275 278 263 223 205 174 163 135 144 147 152 153 171 172 183 176 183 198 209 210 198 189 185 175 142 138 129 124 111 94 143 202 208 216
236 253 279 375 373 352 367 368 330 313 299 252 222 204 199 165 135 134 164 164 168 182 205 188 186 203 205 203 233 243 218 198 171 148 129 118 119 122 113 106 95 141 202
250 264 299 397 430 434 415 413 339 300 293 302 241 203 181 172 153 142 149 170 176 171 161 169 212 231 224 205 245 252 252 224 190 146 119 107 116 113 108 106 96 91 109
260 284 336 377 461 449 418 395 403 368 322 299 259 237 204 174 159 145 139 155 165 187 173 161 169 198 185 146 176 188 165 148 163 143 122 130 129 106 114 126 130 125 93
228 358 409 417 482 528 470 464 492 474 388 342 307 218 217 180 190 148 137 122 171 179 160 124 123 155 186 140 139 168 141 133 131 106 137 140 138 120 120 125 121 106 98
226 282 343 441 568 601 565 452 450 467 441 323 272 263 244 183 159 135 123 103 147 149 137 129 131 140 146 172 170 148 139 128 121 111 101 123 129 141 146 128 111 97 88
175 256 303 432 486 585 577 535 472 387 343 331 268 261 238 218 165 146 151 129 136 132 127 124 116 122 155 155 143 142 139 143 139 133 126 117 130 149 145 128 97 87 86
180 258 376 449 498 586 597 514 452 417 377 355 309 272 241 247 195 150 174 145 145 142 129 138 132 122 126 117 122 122 121 130 125 142 148 112 137 154 147 129 109 90 83

GFSSE_con_3kmhel_198.txt.gz
Helicity
78 161 164 149 130 137 134 136 116 118 116 138 161 169 170 168 162 139 114 103 87 78 69 59 57 57 57 48 39 37 45 44 31 21 22 25 28 18 25 18 14 43 43
136 142 142 158 162 163 155 162 151 142 150 168 185 191 192 186 178 151 127 83 63 81 86 83 71 50 42 37 38 39 35 43 41 20 -0 18 28 24 25 28 56 39 48
180 164 134 148 153 177 171 172 166 142 166 185 199 206 200 193 169 143 99 98 111 107 93 81 76 62 52 45 44 40 35 34 40 23 -16 -3 44 29 41 34 40 37 45
194 199 171 165 170 149 159 175 182 175 184 191 198 186 181 171 153 128 125 127 114 102 92 86 70 61 60 54 46 40 32 25 20 7 7 12 29 43 53 51 55 49 38
147 163 202 200 186 143 140 151 147 174 186 183 180 168 153 149 196 176 164 141 110 93 79 71 68 65 65 63 60 52 40 23 -4 -2 40 24 11 82 97 65 60 81 118
123 143 235 188 175 151 122 122 140 152 160 158 178 177 190 198 182 165 150 126 106 86 80 79 75 76 74 71 76 77 54 5 -37 51 123 110 108 110 140 145 125 123 122
100 122 171 151 142 120 128 141 143 135 156 203 218 236 204 192 172 149 135 128 115 119 114 98 86 83 76 76 84 87 72 52 50 76 87 115 119 149 148 140 137 133 126
135 139 171 146 137 122 127 152 155 161 183 263 257 241 228 186 164 154 143 134 134 123 120 117 99 91 100 98 93 82 82 43 48 75 81 88 97 117 132 139 141 144 135
121 145 197 184 132 127 213 246 247 235 305 270 298 328 225 198 179 161 149 132 132 159 144 128 111 103 105 118 123 69 73 123 57 64 73 68 96 111 125 140 169 162 153
101 136 183 216 166 126 169 283 302 290 293 280 284 253 228 167 121 135 183 154 148 154 142 108 114 113 147 116 97 33 87 45 58 65 81 72 75 96 140 166 172 172 174
136 150 168 201 197 164 173 247 294 288 285 273 248 238 168 141 165 123 231 163 203 159 133 114 124 139 159 142 100 5 94 81 71 74 59 54 114 154 160 168 167 170 165
189 177 198 206 218 226 296 256 238 288 272 235 203 181 147 131 149 180 195 207 254 150 134 129 112 112 60 38 72 116 132 97 142 161 156 123 112 109 112 119 126 125 138
215 225 189 188 214 249 314 339 337 302 269 246 172 134 151 150 181 145 204 189 211 143 112 114 167 99 85 119 160 164 114 99 91 203 368 306 201 145 119 113 108 130 146
251 227 217 189 218 240 267 297 328 321 291 218 184 163 144 157 171 191 221 197 182 168 155 161 182 157 144 178 174 165 137 109 93 168 266 311 297 215 168 140 129 107 112
233 239 213 224 236 231 266 279 258 243 214 214 187 148 159 193 205 195 185 180 201 171 163 159 206 153 154 197 184 168 163 160 145 131 180 270 256 215 212 181 149 122 87
194 210 226 225 259 278 271 247 262 238 206 256 228 190 207 208 194 206 178 188 214 202 192 156 143 151 175 169 173 169 158 152 145 135 141 201 281 265 232 198 179 143 122
161 182 229 251 278 268 254 232 229 245 263 243 210 203 227 232 196 222 205 183 162 180 161 142 161 173 183 167 198 183 174 170 162 152 139 129 167 257 233 222 188 197 165
109 133 180 283 268 266 267 264 219 253 199 247 222 244 209 197 198 240 236 192 181 144 144 137 158 170 165 172 193 163 170 161 166 162 147 124 101 84 181 201 204 204 233
82 99 148 234 291 255 236 245 244 237 248 263 245 227 188 183 160 205 201 191 155 176 153 162 158 153 188 200 190 174 197 167 176 167 160 144 126 108 78 144 200 232 229
93 101 122 182 295 334 339 305 267 263 265 250 228 207 215 174 171 152 173 168 144 165 182 132 145 157 179 199 181 219 189 165 151 142 136 120 121 113 105 91 75 131 229
105 159 162 230 344 459 428 391 325 285 273 252 221 225 217 206 179 159 132 133 137 142 186 166 168 207 197 207 215 224 182 171 177 163 138 128 130 133 132 121 105 101 112
85 109 135 232 325 376 430 392 293 260 232 234 228 228 235 189 191 175 139 133 132 151 134 194 198 177 150 129 169 156 159 172 192 172 150 150 150 129 132 148 156 141 112
63 97 150 191 276 358 415 442 370 326 308 289 259 272 239 188 181 199 174 157 161 164 161 175 172 137 163 136 99 191 174 212 198 178 165 156 141 131 116 117 124 118 108
52 80 172 228 315 324 418 500 495 442 365 292 309 308 252 223 206 197 188 170 171 167 130 118 125 118 124 131 146 152 208 189 188 182 150 143 130 132 136 128 124 113 95
84 112 130 211 297 373 465 507 540 382 283 330 330 309 279 254 193 193 218 192 183 156 116 104 92 95 93 121 127 161 179 155 130 126 163 128 131 136 138 133 119 101 89
35 83 139 215 289 326 456 510 531 448 433 407 378 352 337 293 244 203 232 197 178 150 135 106 92 102 116 121 134 110 126 134 116 136 145 124 157 147 143 133 110 97 93